Year,Month,Day,Hour,Minute,Value (Times are PST for windgust in km/hr)
2010,05,03,00,00,6.40
2010,05,03,00,01,6.40
2010,05,03,00,02,8.10
2010,05,03,00,03,4.80
2010,05,03,00,04,6.40
2010,05,03,00,05,4.80
2010,05,03,00,06,1.60
2010,05,03,00,08,4.80
2010,05,03,00,09,9.60
2010,05,03,00,10,4.80
2010,05,03,00,11,1.60
2010,05,03,00,12,3.20
2010,05,03,00,13,6.40
2010,05,03,00,14,6.40
2010,05,03,00,15,9.60
2010,05,03,00,16,4.80
2010,05,03,00,17,3.20
2010,05,03,00,18,4.80
2010,05,03,00,19,6.40
2010,05,03,00,20,8.10
2010,05,03,00,21,8.10
2010,05,03,00,22,4.80
2010,05,03,00,23,4.80
2010,05,03,00,24,6.40
2010,05,03,00,25,16.10
2010,05,03,00,26,11.30
2010,05,03,00,27,1.60
2010,05,03,00,28,3.20
2010,05,03,00,29,4.80
2010,05,03,00,30,6.40
2010,05,03,00,31,8.10
2010,05,03,00,32,6.40
2010,05,03,00,33,4.80
2010,05,03,00,34,9.60
2010,05,03,00,35,8.10
2010,05,03,00,36,14.50
2010,05,03,00,37,8.10
2010,05,03,00,38,6.40
2010,05,03,00,40,9.60
2010,05,03,00,41,11.30
2010,05,03,00,42,4.80
2010,05,03,00,43,11.30
2010,05,03,00,44,9.60
2010,05,03,00,45,8.10
2010,05,03,00,46,4.80
2010,05,03,00,47,8.10
2010,05,03,00,48,6.40
2010,05,03,00,49,4.80
2010,05,03,00,50,11.30
2010,05,03,00,51,12.90
2010,05,03,00,52,6.40
2010,05,03,00,53,11.30
2010,05,03,00,54,3.20
2010,05,03,00,55,8.10
2010,05,03,00,56,6.40
2010,05,03,00,57,6.40
2010,05,03,00,58,16.10
2010,05,03,00,59,6.40
2010,05,03,01,00,4.80
2010,05,03,01,01,8.10
2010,05,03,01,02,8.10
2010,05,03,01,03,6.40
2010,05,03,01,04,16.10
2010,05,03,01,05,11.30
2010,05,03,01,06,8.10
2010,05,03,01,07,9.60
2010,05,03,01,08,8.10
2010,05,03,01,09,8.10
2010,05,03,01,10,11.30
2010,05,03,01,11,6.40
2010,05,03,01,12,9.60
2010,05,03,01,13,16.10
2010,05,03,01,14,14.50
2010,05,03,01,15,9.60
2010,05,03,01,16,8.10
2010,05,03,01,17,11.30
2010,05,03,01,18,6.40
2010,05,03,01,19,11.30
2010,05,03,01,20,19.30
2010,05,03,01,21,11.30
2010,05,03,01,22,17.70
2010,05,03,01,23,14.50
2010,05,03,01,24,19.30
2010,05,03,01,25,8.10
2010,05,03,01,26,19.30
2010,05,03,01,27,16.10
2010,05,03,01,28,16.10
2010,05,03,01,29,12.90
2010,05,03,01,30,27.40
2010,05,03,01,31,11.30
2010,05,03,01,32,24.20
2010,05,03,01,33,32.20
2010,05,03,01,34,25.70
2010,05,03,01,35,27.40
2010,05,03,01,36,45.10
2010,05,03,01,37,17.70
2010,05,03,01,38,22.50
2010,05,03,01,39,20.90
2010,05,03,01,40,30.60
2010,05,03,01,41,22.50
2010,05,03,01,42,32.20
2010,05,03,01,43,38.60
2010,05,03,01,44,24.20
2010,05,03,01,45,40.20
2010,05,03,01,46,41.80
2010,05,03,01,47,25.70
2010,05,03,01,48,38.60
2010,05,03,01,49,24.20
2010,05,03,01,50,27.40
2010,05,03,01,51,22.50
2010,05,03,01,52,30.60
2010,05,03,01,53,40.20
2010,05,03,01,54,33.80
2010,05,03,01,55,33.80
2010,05,03,01,56,37.00
2010,05,03,01,57,32.20
2010,05,03,01,58,30.60
2010,05,03,01,59,29.00
2010,05,03,02,00,40.20
2010,05,03,02,01,48.30
2010,05,03,02,02,29.00
2010,05,03,02,03,25.70
2010,05,03,02,04,38.60
2010,05,03,02,05,40.20
2010,05,03,02,06,29.00
2010,05,03,02,07,27.40
2010,05,03,02,08,37.00
2010,05,03,02,09,48.30
2010,05,03,02,10,32.20
2010,05,03,02,11,46.70
2010,05,03,02,12,45.10
2010,05,03,02,13,32.20
2010,05,03,02,14,25.70
2010,05,03,02,15,32.20
2010,05,03,02,16,27.40
2010,05,03,02,17,35.40
2010,05,03,02,18,20.90
2010,05,03,02,19,25.70
2010,05,03,02,20,38.60
2010,05,03,02,21,27.40
2010,05,03,02,22,29.00
2010,05,03,02,23,37.00
2010,05,03,02,24,45.10
2010,05,03,02,25,41.80
2010,05,03,02,26,29.00
2010,05,03,02,27,41.80
2010,05,03,02,28,41.80
2010,05,03,02,29,32.20
2010,05,03,02,30,43.50
2010,05,03,02,31,33.80
2010,05,03,02,32,37.00
2010,05,03,02,33,38.60
2010,05,03,02,34,29.00
2010,05,03,02,35,41.80
2010,05,03,02,36,33.80
2010,05,03,02,37,45.10
2010,05,03,02,38,29.00
2010,05,03,02,39,30.60
2010,05,03,02,40,30.60
2010,05,03,02,41,41.80
2010,05,03,02,42,29.00
2010,05,03,02,43,30.60
2010,05,03,02,44,38.60
2010,05,03,02,45,37.00
2010,05,03,02,46,33.80
2010,05,03,02,47,40.20
2010,05,03,02,48,49.90
2010,05,03,02,49,40.20
2010,05,03,02,50,46.70
2010,05,03,02,51,37.00
2010,05,03,02,52,45.10
2010,05,03,02,53,33.80
2010,05,03,02,54,41.80
2010,05,03,02,55,51.50
2010,05,03,02,56,38.60
2010,05,03,02,57,38.60
2010,05,03,02,58,41.80
2010,05,03,02,59,46.70
2010,05,03,03,00,33.80
2010,05,03,03,01,38.60
2010,05,03,03,02,40.20
2010,05,03,03,03,32.20
2010,05,03,03,04,40.20
2010,05,03,03,05,45.10
2010,05,03,03,06,32.20
2010,05,03,03,07,35.40
2010,05,03,03,08,37.00
2010,05,03,03,09,46.70
2010,05,03,03,10,33.80
2010,05,03,03,11,43.50
2010,05,03,03,12,48.30
2010,05,03,03,13,25.70
2010,05,03,03,14,46.70
2010,05,03,03,15,43.50
2010,05,03,03,16,40.20
2010,05,03,03,17,27.40
2010,05,03,03,18,22.50
2010,05,03,03,19,33.80
2010,05,03,03,20,45.10
2010,05,03,03,21,41.80
2010,05,03,03,22,30.60
2010,05,03,03,23,22.50
2010,05,03,03,24,37.00
2010,05,03,03,25,49.90
2010,05,03,03,26,41.80
2010,05,03,03,27,45.10
2010,05,03,03,28,38.60
2010,05,03,03,29,22.50
2010,05,03,03,30,27.40
2010,05,03,03,31,51.50
2010,05,03,03,32,35.40
2010,05,03,03,33,46.70
2010,05,03,03,34,38.60
2010,05,03,03,35,40.20
2010,05,03,03,36,45.10
2010,05,03,03,37,61.20
2010,05,03,03,38,53.10
2010,05,03,03,39,49.90
2010,05,03,03,40,49.90
2010,05,03,03,41,35.40
2010,05,03,03,42,40.20
2010,05,03,03,43,32.20
2010,05,03,03,44,40.20
2010,05,03,03,45,57.90
2010,05,03,03,46,29.00
2010,05,03,03,47,46.70
2010,05,03,03,48,46.70
2010,05,03,03,49,32.20
2010,05,03,03,50,51.50
2010,05,03,03,51,57.90
2010,05,03,03,52,61.20
2010,05,03,03,53,53.10
2010,05,03,03,54,40.20
2010,05,03,03,55,38.60
2010,05,03,03,56,51.50
2010,05,03,03,57,25.70
2010,05,03,03,58,46.70
2010,05,03,03,59,46.70
2010,05,03,04,00,30.60
2010,05,03,04,01,27.40
2010,05,03,04,02,45.10
2010,05,03,04,03,43.50
2010,05,03,04,04,29.00
2010,05,03,04,05,70.80
2010,05,03,04,06,38.60
2010,05,03,04,07,43.50
2010,05,03,04,08,45.10
2010,05,03,04,09,38.60
2010,05,03,04,10,43.50
2010,05,03,04,11,40.20
2010,05,03,04,12,43.50
2010,05,03,04,13,43.50
2010,05,03,04,14,40.20
2010,05,03,04,15,37.00
2010,05,03,04,16,46.70
2010,05,03,04,17,51.50
2010,05,03,04,18,37.00
2010,05,03,04,19,45.10
2010,05,03,04,20,43.50
2010,05,03,04,21,29.00
2010,05,03,04,22,43.50
2010,05,03,04,23,38.60
2010,05,03,04,24,35.40
2010,05,03,04,25,37.00
2010,05,03,04,26,29.00
2010,05,03,04,27,41.80
2010,05,03,04,28,40.20
2010,05,03,04,29,35.40
2010,05,03,04,30,40.20
2010,05,03,04,31,43.50
2010,05,03,04,32,46.70
2010,05,03,04,33,40.20
2010,05,03,04,34,32.20
2010,05,03,04,35,45.10
2010,05,03,04,36,33.80
2010,05,03,04,37,27.40
2010,05,03,04,38,30.60
2010,05,03,04,39,38.60
2010,05,03,04,40,38.60
2010,05,03,04,41,33.80
2010,05,03,04,42,46.70
2010,05,03,04,43,30.60
2010,05,03,04,44,41.80
2010,05,03,04,45,32.20
2010,05,03,04,46,40.20
2010,05,03,04,47,35.40
2010,05,03,04,48,35.40
2010,05,03,04,49,25.70
2010,05,03,04,50,40.20
2010,05,03,04,51,43.50
2010,05,03,04,52,35.40
2010,05,03,04,53,43.50
2010,05,03,04,54,49.90
2010,05,03,04,55,38.60
2010,05,03,04,56,38.60
2010,05,03,04,57,30.60
2010,05,03,04,58,27.40
2010,05,03,04,59,20.90
2010,05,03,05,00,27.40
2010,05,03,05,01,35.40
2010,05,03,05,02,37.00
2010,05,03,05,03,46.70
2010,05,03,05,04,35.40
2010,05,03,05,05,40.20
2010,05,03,05,06,32.20
2010,05,03,05,07,45.10
2010,05,03,05,08,30.60
2010,05,03,05,09,25.70
2010,05,03,05,10,35.40
2010,05,03,05,11,35.40
2010,05,03,05,12,45.10
2010,05,03,05,13,33.80
2010,05,03,05,14,37.00
2010,05,03,05,15,40.20
2010,05,03,05,16,38.60
2010,05,03,05,17,33.80
2010,05,03,05,18,37.00
2010,05,03,05,19,32.20
2010,05,03,05,20,27.40
2010,05,03,05,21,25.70
2010,05,03,05,22,27.40
2010,05,03,05,23,35.40
2010,05,03,05,24,27.40
2010,05,03,05,25,35.40
2010,05,03,05,26,19.30
2010,05,03,05,27,25.70
2010,05,03,05,28,29.00
2010,05,03,05,29,25.70
2010,05,03,05,30,20.90
2010,05,03,05,31,30.60
2010,05,03,05,32,25.70
2010,05,03,05,33,33.80
2010,05,03,05,34,27.40
2010,05,03,05,35,27.40
2010,05,03,05,36,24.20
2010,05,03,05,37,29.00
2010,05,03,05,38,19.30
2010,05,03,05,39,20.90
2010,05,03,05,40,22.50
2010,05,03,05,41,20.90
2010,05,03,05,42,33.80
2010,05,03,05,43,32.20
2010,05,03,05,44,40.20
2010,05,03,05,45,27.40
2010,05,03,05,46,33.80
2010,05,03,05,47,20.90
2010,05,03,05,48,38.60
2010,05,03,05,49,33.80
2010,05,03,05,50,27.40
2010,05,03,05,51,32.20
2010,05,03,05,52,32.20
2010,05,03,05,53,24.20
2010,05,03,05,54,41.80
2010,05,03,05,55,38.60
2010,05,03,05,56,33.80
2010,05,03,05,57,27.40
2010,05,03,05,58,41.80
2010,05,03,05,59,35.40
2010,05,03,06,00,24.20
2010,05,03,06,01,29.00
2010,05,03,06,02,33.80
2010,05,03,06,03,29.00
2010,05,03,06,04,33.80
2010,05,03,06,05,33.80
2010,05,03,06,06,40.20
2010,05,03,06,07,53.10
2010,05,03,06,08,38.60
2010,05,03,06,09,32.20
2010,05,03,06,10,30.60
2010,05,03,06,11,24.20
2010,05,03,06,12,32.20
2010,05,03,06,13,41.80
2010,05,03,06,14,30.60
2010,05,03,06,15,29.00
2010,05,03,06,16,43.50
2010,05,03,06,17,38.60
2010,05,03,06,18,33.80
2010,05,03,06,19,20.90
2010,05,03,06,20,40.20
2010,05,03,06,21,57.90
2010,05,03,06,22,41.80
2010,05,03,06,23,38.60
2010,05,03,06,24,32.20
2010,05,03,06,25,40.20
2010,05,03,06,26,27.40
2010,05,03,06,27,33.80
2010,05,03,06,28,32.20
2010,05,03,06,29,35.40
2010,05,03,06,30,32.20
2010,05,03,06,31,30.60
2010,05,03,06,32,32.20
2010,05,03,06,33,30.60
2010,05,03,06,34,37.00
2010,05,03,06,35,38.60
2010,05,03,06,36,30.60
2010,05,03,06,37,33.80
2010,05,03,06,38,48.30
2010,05,03,06,39,30.60
2010,05,03,06,40,30.60
2010,05,03,06,41,40.20
2010,05,03,06,42,38.60
2010,05,03,06,43,27.40
2010,05,03,06,44,35.40
2010,05,03,06,45,51.50
2010,05,03,06,46,41.80
2010,05,03,06,47,41.80
2010,05,03,06,48,38.60
2010,05,03,06,49,35.40
2010,05,03,06,50,32.20
2010,05,03,06,51,51.50
2010,05,03,06,52,27.40
2010,05,03,06,53,37.00
2010,05,03,06,54,53.10
2010,05,03,06,55,25.70
2010,05,03,06,56,41.80
2010,05,03,06,57,37.00
2010,05,03,06,58,33.80
2010,05,03,06,59,27.40
2010,05,03,07,00,46.70
2010,05,03,07,01,25.70
2010,05,03,07,02,41.80
2010,05,03,07,03,40.20
2010,05,03,07,04,37.00
2010,05,03,07,05,30.60
2010,05,03,07,06,27.40
2010,05,03,07,07,33.80
2010,05,03,07,08,35.40
2010,05,03,07,09,40.20
2010,05,03,07,10,41.80
2010,05,03,07,11,41.80
2010,05,03,07,12,35.40
2010,05,03,07,13,33.80
2010,05,03,07,14,45.10
2010,05,03,07,15,32.20
2010,05,03,07,16,33.80
2010,05,03,07,17,37.00
2010,05,03,07,18,37.00
2010,05,03,07,19,40.20
2010,05,03,07,20,25.70
2010,05,03,07,21,37.00
2010,05,03,07,22,32.20
2010,05,03,07,23,27.40
2010,05,03,07,24,29.00
2010,05,03,07,25,38.60
2010,05,03,07,26,33.80
2010,05,03,07,27,24.20
2010,05,03,07,28,30.60
2010,05,03,07,29,33.80
2010,05,03,07,30,20.90
2010,05,03,07,31,37.00
2010,05,03,07,32,35.40
2010,05,03,07,33,37.00
2010,05,03,07,34,25.70
2010,05,03,07,35,29.00
2010,05,03,07,36,29.00
2010,05,03,07,37,32.20
2010,05,03,07,38,27.40
2010,05,03,07,39,48.30
2010,05,03,07,40,30.60
2010,05,03,07,41,41.80
2010,05,03,07,42,48.30
2010,05,03,07,43,38.60
2010,05,03,07,44,38.60
2010,05,03,07,45,41.80
2010,05,03,07,46,25.70
2010,05,03,07,47,46.70
2010,05,03,07,48,48.30
2010,05,03,07,49,29.00
2010,05,03,07,50,29.00
2010,05,03,07,51,46.70
2010,05,03,07,52,45.10
2010,05,03,07,53,51.50
2010,05,03,07,54,61.20
2010,05,03,07,55,45.10
2010,05,03,07,56,33.80
2010,05,03,07,57,33.80
2010,05,03,07,58,49.90
2010,05,03,07,59,48.30
2010,05,03,08,00,33.80
2010,05,03,08,01,30.60
2010,05,03,08,02,45.10
2010,05,03,08,03,38.60
2010,05,03,08,04,32.20
2010,05,03,08,05,33.80
2010,05,03,08,06,49.90
2010,05,03,08,07,45.10
2010,05,03,08,08,27.40
2010,05,03,08,09,45.10
2010,05,03,08,10,40.20
2010,05,03,08,11,38.60
2010,05,03,08,12,59.50
2010,05,03,08,13,37.00
2010,05,03,08,14,33.80
2010,05,03,08,15,49.90
2010,05,03,08,16,27.40
2010,05,03,08,17,49.90
2010,05,03,08,18,40.20
2010,05,03,08,19,38.60
2010,05,03,08,20,35.40
2010,05,03,08,21,30.60
2010,05,03,08,22,30.60
2010,05,03,08,23,27.40
2010,05,03,08,24,45.10
2010,05,03,08,25,37.00
2010,05,03,08,26,27.40
2010,05,03,08,27,37.00
2010,05,03,08,28,43.50
2010,05,03,08,29,30.60
2010,05,03,08,30,53.10
2010,05,03,08,31,48.30
2010,05,03,08,32,38.60
2010,05,03,08,33,45.10
2010,05,03,08,34,43.50
2010,05,03,08,35,27.40
2010,05,03,08,36,45.10
2010,05,03,08,37,49.90
2010,05,03,08,38,41.80
2010,05,03,08,39,29.00
2010,05,03,08,40,22.50
2010,05,03,08,41,30.60
2010,05,03,08,42,22.50
2010,05,03,08,43,37.00
2010,05,03,08,44,32.20
2010,05,03,08,45,27.40
2010,05,03,08,46,33.80
2010,05,03,08,47,30.60
2010,05,03,08,48,27.40
2010,05,03,08,49,49.90
2010,05,03,08,50,38.60
2010,05,03,08,51,35.40
2010,05,03,08,52,30.60
2010,05,03,08,53,45.10
2010,05,03,08,54,22.50
2010,05,03,08,55,29.00
2010,05,03,08,56,25.70
2010,05,03,08,57,30.60
2010,05,03,08,58,33.80
2010,05,03,08,59,27.40
2010,05,03,09,00,29.00
2010,05,03,09,01,49.90
2010,05,03,09,02,29.00
2010,05,03,09,03,37.00
2010,05,03,09,04,27.40
2010,05,03,09,05,24.20
2010,05,03,09,06,35.40
2010,05,03,09,07,32.20
2010,05,03,09,08,24.20
2010,05,03,09,09,43.50
2010,05,03,09,10,35.40
2010,05,03,09,11,25.70
2010,05,03,09,12,38.60
2010,05,03,09,13,45.10
2010,05,03,09,14,30.60
2010,05,03,09,15,25.70
2010,05,03,09,16,35.40
2010,05,03,09,17,37.00
2010,05,03,09,18,24.20
2010,05,03,09,19,57.90
2010,05,03,09,20,49.90
2010,05,03,09,21,30.60
2010,05,03,09,22,25.70
2010,05,03,09,23,24.20
2010,05,03,09,24,46.70
2010,05,03,09,25,30.60
2010,05,03,09,26,24.20
2010,05,03,09,27,30.60
2010,05,03,09,28,29.00
2010,05,03,09,29,43.50
2010,05,03,09,30,30.60
2010,05,03,09,31,37.00
2010,05,03,09,32,32.20
2010,05,03,09,33,35.40
2010,05,03,09,34,32.20
2010,05,03,09,35,41.80
2010,05,03,09,36,43.50
2010,05,03,09,37,25.70
2010,05,03,09,38,27.40
2010,05,03,09,39,27.40
2010,05,03,09,40,38.60
2010,05,03,09,41,30.60
2010,05,03,09,42,40.20
2010,05,03,09,43,49.90
2010,05,03,09,44,67.60
2010,05,03,09,45,37.00
2010,05,03,09,46,35.40
2010,05,03,09,47,59.50
2010,05,03,09,48,35.40
2010,05,03,09,49,48.30
2010,05,03,09,50,46.70
2010,05,03,09,51,48.30
2010,05,03,09,52,33.80
2010,05,03,09,53,38.60
2010,05,03,09,54,53.10
2010,05,03,09,55,48.30
2010,05,03,09,56,37.00
2010,05,03,09,57,40.20
2010,05,03,09,58,43.50
2010,05,03,09,59,46.70
2010,05,03,10,00,51.50
2010,05,03,10,01,46.70
2010,05,03,10,02,53.10
2010,05,03,10,03,46.70
2010,05,03,10,04,41.80
2010,05,03,10,05,49.90
2010,05,03,10,06,41.80
2010,05,03,10,07,37.00
2010,05,03,10,08,45.10
2010,05,03,10,09,41.80
2010,05,03,10,10,49.90
2010,05,03,10,11,35.40
2010,05,03,10,12,32.20
2010,05,03,10,13,45.10
2010,05,03,10,14,56.30
2010,05,03,10,15,53.10
2010,05,03,10,16,41.80
2010,05,03,10,17,48.30
2010,05,03,10,18,48.30
2010,05,03,10,19,40.20
2010,05,03,10,20,25.70
2010,05,03,10,21,20.90
2010,05,03,10,22,46.70
2010,05,03,10,23,37.00
2010,05,03,10,24,37.00
2010,05,03,10,25,49.90
2010,05,03,10,26,32.20
2010,05,03,10,27,35.40
2010,05,03,10,28,37.00
2010,05,03,10,29,37.00
2010,05,03,10,30,33.80
2010,05,03,10,31,62.70
2010,05,03,10,32,33.80
2010,05,03,10,33,37.00
2010,05,03,10,34,48.30
2010,05,03,10,35,41.80
2010,05,03,10,36,43.50
2010,05,03,10,37,40.20
2010,05,03,10,38,37.00
2010,05,03,10,39,41.80
2010,05,03,10,40,25.70
2010,05,03,10,41,25.70
2010,05,03,10,42,22.50
2010,05,03,10,43,22.50
2010,05,03,10,44,29.00
2010,05,03,10,45,35.40
2010,05,03,10,46,32.20
2010,05,03,10,47,25.70
2010,05,03,10,48,41.80
2010,05,03,10,49,29.00
2010,05,03,10,50,27.40
2010,05,03,10,51,33.80
2010,05,03,10,52,32.20
2010,05,03,10,53,33.80
2010,05,03,10,54,35.40
2010,05,03,10,55,30.60
2010,05,03,10,56,29.00
2010,05,03,10,57,37.00
2010,05,03,10,58,41.80
2010,05,03,10,59,48.30
2010,05,03,11,00,35.40
2010,05,03,11,01,37.00
2010,05,03,11,02,29.00
2010,05,03,11,03,40.20
2010,05,03,11,04,32.20
2010,05,03,11,05,59.50
2010,05,03,11,06,45.10
2010,05,03,11,07,25.70
2010,05,03,11,08,25.70
2010,05,03,11,09,24.20
2010,05,03,11,10,25.70
2010,05,03,11,11,38.60
2010,05,03,11,12,38.60
2010,05,03,11,13,40.20
2010,05,03,11,14,46.70
2010,05,03,11,15,30.60
2010,05,03,11,16,35.40
2010,05,03,11,17,41.80
2010,05,03,11,18,61.20
2010,05,03,11,19,48.30
2010,05,03,11,20,37.00
2010,05,03,11,21,41.80
2010,05,03,11,22,45.10
2010,05,03,11,23,33.80
2010,05,03,11,24,48.30
2010,05,03,11,25,54.70
2010,05,03,11,26,20.90
2010,05,03,11,27,29.00
2010,05,03,11,28,40.20
2010,05,03,11,29,38.60
2010,05,03,11,30,40.20
2010,05,03,11,31,27.40
2010,05,03,11,32,37.00
2010,05,03,11,33,38.60
2010,05,03,11,34,48.30
2010,05,03,11,35,40.20
2010,05,03,11,36,45.10
2010,05,03,11,37,25.70
2010,05,03,11,38,45.10
2010,05,03,11,39,41.80
2010,05,03,11,40,37.00
2010,05,03,11,41,33.80
2010,05,03,11,42,40.20
2010,05,03,11,43,38.60
2010,05,03,11,44,51.50
2010,05,03,11,45,46.70
2010,05,03,11,46,30.60
2010,05,03,11,47,29.00
2010,05,03,11,48,46.70
2010,05,03,11,49,29.00
2010,05,03,11,50,43.50
2010,05,03,11,51,32.20
2010,05,03,11,52,33.80
2010,05,03,11,53,29.00
2010,05,03,11,54,35.40
2010,05,03,11,55,40.20
2010,05,03,11,56,48.30
2010,05,03,11,57,40.20
2010,05,03,11,58,35.40
2010,05,03,11,59,37.00
2010,05,03,12,00,32.20
2010,05,03,12,01,22.50
2010,05,03,12,02,25.70
2010,05,03,12,03,41.80
2010,05,03,12,04,38.60
2010,05,03,12,05,45.10
2010,05,03,12,06,38.60
2010,05,03,12,07,38.60
2010,05,03,12,08,40.20
2010,05,03,12,09,40.20
2010,05,03,12,10,51.50
2010,05,03,12,11,43.50
2010,05,03,12,12,51.50
2010,05,03,12,13,48.30
2010,05,03,12,14,41.80
2010,05,03,12,15,49.90
2010,05,03,12,16,48.30
2010,05,03,12,17,41.80
2010,05,03,12,18,46.70
2010,05,03,12,19,51.50
2010,05,03,12,20,40.20
2010,05,03,12,21,43.50
2010,05,03,12,22,46.70
2010,05,03,12,23,27.40
2010,05,03,12,24,32.20
2010,05,03,12,25,37.00
2010,05,03,12,26,41.80
2010,05,03,12,27,35.40
2010,05,03,12,28,56.30
2010,05,03,12,29,45.10
2010,05,03,12,30,35.40
2010,05,03,12,31,30.60
2010,05,03,12,32,37.00
2010,05,03,12,33,40.20
2010,05,03,12,34,46.70
2010,05,03,12,35,32.20
2010,05,03,12,36,46.70
2010,05,03,12,37,32.20
2010,05,03,12,38,35.40
2010,05,03,12,39,37.00
2010,05,03,12,40,30.60
2010,05,03,12,41,33.80
2010,05,03,12,42,48.30
2010,05,03,12,43,27.40
2010,05,03,12,44,35.40
2010,05,03,12,45,38.60
2010,05,03,12,46,35.40
2010,05,03,12,47,38.60
2010,05,03,12,48,40.20
2010,05,03,12,49,33.80
2010,05,03,12,50,45.10
2010,05,03,12,51,37.00
2010,05,03,12,52,29.00
2010,05,03,12,53,41.80
2010,05,03,12,54,37.00
2010,05,03,12,55,22.50
2010,05,03,12,56,33.80
2010,05,03,12,57,29.00
2010,05,03,12,58,24.20
2010,05,03,12,59,25.70
2010,05,03,13,00,33.80
2010,05,03,13,01,33.80
2010,05,03,13,02,24.20
2010,05,03,13,03,35.40
2010,05,03,13,04,25.70
2010,05,03,13,05,38.60
2010,05,03,13,06,27.40
2010,05,03,13,07,22.50
2010,05,03,13,08,32.20
2010,05,03,13,09,22.50
2010,05,03,13,10,24.20
2010,05,03,13,11,24.20
2010,05,03,13,12,22.50
2010,05,03,13,13,25.70
2010,05,03,13,14,33.80
2010,05,03,13,15,32.20
2010,05,03,13,16,29.00
2010,05,03,13,17,30.60
2010,05,03,13,18,43.50
2010,05,03,13,19,30.60
2010,05,03,13,20,33.80
2010,05,03,13,21,38.60
2010,05,03,13,22,30.60
2010,05,03,13,23,29.00
2010,05,03,13,24,30.60
2010,05,03,13,25,30.60
2010,05,03,13,26,33.80
2010,05,03,13,27,27.40
2010,05,03,13,28,43.50
2010,05,03,13,29,35.40
2010,05,03,13,30,35.40
2010,05,03,13,31,27.40
2010,05,03,13,32,27.40
2010,05,03,13,33,32.20
2010,05,03,13,34,33.80
2010,05,03,13,35,29.00
2010,05,03,13,36,14.50
2010,05,03,13,37,24.20
2010,05,03,13,38,29.00
2010,05,03,13,39,37.00
2010,05,03,13,40,35.40
2010,05,03,13,41,29.00
2010,05,03,13,42,24.20
2010,05,03,13,43,22.50
2010,05,03,13,44,20.90
2010,05,03,13,45,25.70
2010,05,03,13,46,16.10
2010,05,03,13,47,24.20
2010,05,03,13,48,17.70
2010,05,03,13,49,29.00
2010,05,03,13,50,40.20
2010,05,03,13,51,30.60
2010,05,03,13,52,30.60
2010,05,03,13,53,22.50
2010,05,03,13,54,20.90
2010,05,03,13,55,24.20
2010,05,03,13,56,32.20
2010,05,03,13,57,37.00
2010,05,03,13,58,25.70
2010,05,03,13,59,35.40
2010,05,03,14,00,40.20
2010,05,03,14,01,45.10
2010,05,03,14,02,43.50
2010,05,03,14,03,41.80
2010,05,03,14,04,30.60
2010,05,03,14,05,29.00
2010,05,03,14,06,35.40
2010,05,03,14,07,22.50
2010,05,03,14,08,30.60
2010,05,03,14,09,30.60
2010,05,03,14,10,51.50
2010,05,03,14,11,38.60
2010,05,03,14,12,38.60
2010,05,03,14,13,41.80
2010,05,03,14,14,29.00
2010,05,03,14,15,41.80
2010,05,03,14,16,32.20
2010,05,03,14,17,43.50
2010,05,03,14,18,41.80
2010,05,03,14,19,38.60
2010,05,03,14,20,51.50
2010,05,03,14,21,37.00
2010,05,03,14,22,33.80
2010,05,03,14,23,30.60
2010,05,03,14,24,35.40
2010,05,03,14,25,38.60
2010,05,03,14,26,32.20
2010,05,03,14,27,22.50
2010,05,03,14,28,43.50
2010,05,03,14,29,46.70
2010,05,03,14,30,29.00
2010,05,03,14,31,33.80
2010,05,03,14,32,30.60
2010,05,03,14,33,37.00
2010,05,03,14,34,35.40
2010,05,03,14,35,22.50
2010,05,03,14,36,35.40
2010,05,03,14,37,25.70
2010,05,03,14,38,30.60
2010,05,03,14,39,43.50
2010,05,03,14,40,32.20
2010,05,03,14,41,41.80
2010,05,03,14,42,43.50
2010,05,03,14,43,33.80
2010,05,03,14,44,41.80
2010,05,03,14,45,25.70
2010,05,03,14,46,22.50
2010,05,03,14,47,25.70
2010,05,03,14,48,32.20
2010,05,03,14,49,35.40
2010,05,03,14,50,25.70
2010,05,03,14,51,40.20
2010,05,03,14,52,37.00
2010,05,03,14,53,35.40
2010,05,03,14,54,40.20
2010,05,03,14,55,30.60
2010,05,03,14,56,30.60
2010,05,03,14,57,32.20
2010,05,03,14,58,30.60
2010,05,03,14,59,29.00
2010,05,03,15,00,30.60
2010,05,03,15,01,25.70
2010,05,03,15,02,35.40
2010,05,03,15,03,29.00
2010,05,03,15,04,27.40
2010,05,03,15,05,41.80
2010,05,03,15,06,43.50
2010,05,03,15,07,41.80
2010,05,03,15,08,38.60
2010,05,03,15,09,40.20
2010,05,03,15,10,48.30
2010,05,03,15,11,29.00
2010,05,03,15,12,41.80
2010,05,03,15,13,29.00
2010,05,03,15,14,20.90
2010,05,03,15,15,22.50
2010,05,03,15,16,20.90
2010,05,03,15,17,16.10
2010,05,03,15,18,17.70
2010,05,03,15,19,22.50
2010,05,03,15,20,35.40
2010,05,03,15,21,27.40
2010,05,03,15,22,19.30
2010,05,03,15,23,30.60
2010,05,03,15,24,33.80
2010,05,03,15,25,37.00
2010,05,03,15,26,30.60
2010,05,03,15,27,41.80
2010,05,03,15,28,40.20
2010,05,03,15,29,27.40
2010,05,03,15,30,30.60
2010,05,03,15,31,30.60
2010,05,03,15,32,46.70
2010,05,03,15,33,33.80
2010,05,03,15,34,38.60
2010,05,03,15,35,41.80
2010,05,03,15,36,33.80
2010,05,03,15,37,25.70
2010,05,03,15,38,35.40
2010,05,03,15,39,27.40
2010,05,03,15,40,33.80
2010,05,03,15,41,25.70
2010,05,03,15,42,24.20
2010,05,03,15,43,33.80
2010,05,03,15,44,24.20
2010,05,03,15,45,24.20
2010,05,03,15,46,53.10
2010,05,03,15,47,27.40
2010,05,03,15,48,24.20
2010,05,03,15,49,25.70
2010,05,03,15,50,29.00
2010,05,03,15,51,29.00
2010,05,03,15,52,32.20
2010,05,03,15,53,29.00
2010,05,03,15,54,45.10
2010,05,03,15,55,45.10
2010,05,03,15,56,48.30
2010,05,03,15,57,35.40
2010,05,03,15,58,35.40
2010,05,03,15,59,45.10
2010,05,03,16,00,51.50
2010,05,03,16,01,33.80
2010,05,03,16,02,38.60
2010,05,03,16,03,27.40
2010,05,03,16,04,25.70
2010,05,03,16,05,22.50
2010,05,03,16,06,33.80
2010,05,03,16,07,33.80
2010,05,03,16,08,27.40
2010,05,03,16,09,33.80
2010,05,03,16,10,43.50
2010,05,03,16,11,33.80
2010,05,03,16,12,25.70
2010,05,03,16,13,20.90
2010,05,03,16,14,33.80
2010,05,03,16,15,30.60
2010,05,03,16,16,29.00
2010,05,03,16,17,35.40
2010,05,03,16,18,40.20
2010,05,03,16,19,48.30
2010,05,03,16,20,27.40
2010,05,03,16,21,25.70
2010,05,03,16,22,35.40
2010,05,03,16,23,35.40
2010,05,03,16,24,25.70
2010,05,03,16,25,29.00
2010,05,03,16,26,43.50
2010,05,03,16,27,33.80
2010,05,03,16,28,38.60
2010,05,03,16,29,37.00
2010,05,03,16,30,37.00
2010,05,03,16,31,35.40
2010,05,03,16,32,32.20
2010,05,03,16,33,33.80
2010,05,03,16,34,22.50
2010,05,03,16,35,37.00
2010,05,03,16,36,25.70
2010,05,03,16,37,25.70
2010,05,03,16,38,22.50
2010,05,03,16,39,43.50
2010,05,03,16,40,46.70
2010,05,03,16,41,27.40
2010,05,03,16,42,32.20
2010,05,03,16,43,29.00
2010,05,03,16,44,53.10
2010,05,03,16,45,25.70
2010,05,03,16,46,25.70
2010,05,03,16,47,32.20
2010,05,03,16,48,27.40
2010,05,03,16,49,41.80
2010,05,03,16,50,30.60
2010,05,03,16,51,35.40
2010,05,03,16,52,24.20
2010,05,03,16,53,32.20
2010,05,03,16,54,27.40
2010,05,03,16,55,45.10
2010,05,03,16,56,43.50
2010,05,03,16,57,33.80
2010,05,03,16,58,29.00
2010,05,03,16,59,32.20
2010,05,03,17,00,37.00
2010,05,03,17,01,45.10
2010,05,03,17,02,51.50
2010,05,03,17,03,24.20
2010,05,03,17,04,38.60
2010,05,03,17,05,45.10
2010,05,03,17,06,22.50
2010,05,03,17,07,25.70
2010,05,03,17,08,22.50
2010,05,03,17,09,33.80
2010,05,03,17,10,33.80
2010,05,03,17,11,35.40
2010,05,03,17,12,38.60
2010,05,03,17,13,49.90
2010,05,03,17,14,22.50
2010,05,03,17,15,51.50
2010,05,03,17,16,43.50
2010,05,03,17,17,30.60
2010,05,03,17,18,37.00
2010,05,03,17,19,25.70
2010,05,03,17,20,30.60
2010,05,03,17,21,40.20
2010,05,03,17,22,43.50
2010,05,03,17,23,54.70
2010,05,03,17,24,38.60